Regional Weather Roundup
Issued by NWS

Home | Current Version | Previous Version | Text Only | Print | Product List | Glossary On
Versions: 1 2 3 4 5 6 7 8 9 10 11 12 13 14 15 16 17 18 19 20 21 22 23 24 25 26 27 28 29 30 31 32 33 34 35 36 37 38 39 40 41 42 43 44 45 46 47 48 49 50
000
ASCA42 TJSJ 171511
RWRPR
PUERTO RICO/U.S. VIRGIN ISLANDS HOURLY WEATHER ROUNDUP
NATIONAL WEATHER SERVICE SAN JUAN PR
1100 AM AST WED SEP 17 2014

PRZ001-004-171600-
PUERTO RICO

CITY           SKY/WX    TMP DP  RH WIND       PRES   REMARKS
SAN JUAN LMM   PTSUNNY   88  75  66 NE10      29.99F HX  97
MAYAGUEZ       PTSUNNY   86  72  62 W7        30.00S HX  92
AGUADILLA      MOSUNNY   86  72  62 NE10      30.03R HX  92
CEIBA          MOSUNNY   88  75  66 SE9       30.02F HX  97
$$

PRZ006-007-171600-
U.S. VIRGIN ISLANDS

CITY           SKY/WX    TMP DP  RH WIND       PRES   REMARKS
CHRISTIANSTED  MOSUNNY   88  75  66 E14       30.00  HX  97
$$

HOURLY WEATHER ROUNDUP FOR THE NEWS MEDIA

CITY           SKY/WX    TMP DP  RH WIND       PRES   REMARKS
MIAMI          PTSUNNY   86  71  60 NW8       29.99S HX  91
ORLANDO        PTSUNNY   81  72  74 W8        29.96S
NEW YORK       MOSUNNY   68  42  38 N7        30.06F
NEWARK         MOSUNNY   69  41  36 N9        30.05F
CHICAGO        MOSUNNY   60  45  57 VRB5      30.03F
HARTFORD       SUNNY     67  50  54 W7        30.01S
BOSTON         MOSUNNY   65  48  54 VRB6      30.01S
DALLAS         PTSUNNY   82  71  69 VRB5      29.97S
PHILADELPHIA   MOSUNNY   70  49  47 E6        30.06F



USA.gov is the U.S. government's official web portal to all federal, state and local government web resources and services.